EWG7RW EDDK-LBSF

Flight info

Callsign EWG7RW
Flight time 2h 6m
Altitude 35000
Route KUMIK1R KUMIK L603 TESGA DCT ESATI DCT BOREP DCT ENITA DCT ODNEM/N0412F230 M748 BERVA
Aircraft A319/M-SDE3FGHIRWY/LB1

Departure

Time 2026-04-26 17:19
Airport Cologne Bonn Airport (EDDK)

Arrival

Time 2026-04-26 19:26
Airport Sofia Airport (LBSF)
Time Latitude Longitude Altitude Speed Heading
2026-04-26 16:55 50.87835 7.12450 234 ft 0 kts 288°
2026-04-26 17:09 50.87834 7.12452 232 ft 2 kts 288°
2026-04-26 17:09 50.87830 7.12473 234 ft 3 kts 288°
2026-04-26 17:09 50.87820 7.12517 233 ft 3 kts 298°
2026-04-26 17:09 50.87809 7.12545 236 ft 3 kts 318°
2026-04-26 17:10 50.87792 7.12561 234 ft 3 kts
2026-04-26 17:10 50.87781 7.12558 235 ft 1 kts 18°
2026-04-26 17:10 50.87781 7.12557 235 ft 0 kts 18°
2026-04-26 17:13 50.87802 7.12568 233 ft 6 kts 21°
2026-04-26 17:13 50.87811 7.12639 234 ft 10 kts 131°
2026-04-26 17:13 50.87660 7.12858 232 ft 19 kts 137°
2026-04-26 17:14 50.87544 7.13025 232 ft 25 kts 137°
2026-04-26 17:14 50.87234 7.13474 235 ft 32 kts 137°
2026-04-26 17:14 50.87074 7.13706 241 ft 31 kts 137°
2026-04-26 17:15 50.86770 7.14125 255 ft 24 kts 165°
2026-04-26 17:15 50.86709 7.14174 258 ft 12 kts 137°
2026-04-26 17:15 50.86625 7.14295 261 ft 15 kts 137°
2026-04-26 17:16 50.86535 7.14425 264 ft 20 kts 137°
2026-04-26 17:16 50.86427 7.14581 271 ft 23 kts 137°
2026-04-26 17:16 50.86301 7.14765 278 ft 26 kts 137°
2026-04-26 17:16 50.86205 7.14904 283 ft 29 kts 137°
2026-04-26 17:17 50.86043 7.15136 294 ft 34 kts 137°
2026-04-26 17:17 50.85866 7.15393 297 ft 34 kts 137°
2026-04-26 17:17 50.85691 7.15648 301 ft 34 kts 137°
2026-04-26 17:17 50.85517 7.15900 307 ft 34 kts 137°
2026-04-26 17:18 50.85406 7.16061 308 ft 18 kts 137°
2026-04-26 17:18 50.85339 7.16226 308 ft 19 kts 100°
2026-04-26 17:18 50.85376 7.16436 308 ft 18 kts 54°
2026-04-26 17:18 50.85495 7.16520 307 ft 22 kts
2026-04-26 17:19 50.86123 7.15696 296 ft 111 kts 317°
2026-04-26 17:19 50.86822 7.14684 353 ft 152 kts 317°
2026-04-26 17:19 50.87601 7.13563 974 ft 152 kts 317°
2026-04-26 17:20 50.88395 7.12420 1498 ft 160 kts 319°
2026-04-26 17:20 50.88987 7.11626 1623 ft 177 kts 327°
2026-04-26 17:20 50.90696 7.11312 1984 ft 206 kts 19°
2026-04-26 17:20 50.91983 7.12419 2666 ft 212 kts 30°
2026-04-26 17:21 50.93199 7.13744 3533 ft 214 kts 44°
2026-04-26 17:21 50.94103 7.15717 4118 ft 234 kts 62°
2026-04-26 17:21 50.94873 7.18140 4595 ft 258 kts 63°
2026-04-26 17:21 50.95683 7.20722 4948 ft 269 kts 62°
2026-04-26 17:22 50.96525 7.23414 5238 ft 278 kts 63°
2026-04-26 17:22 50.97390 7.26178 6278 ft 275 kts 62°
2026-04-26 17:22 50.98245 7.28902 7200 ft 277 kts 61°
2026-04-26 17:22 50.99100 7.31617 8062 ft 281 kts 60°
2026-04-26 17:23 50.99979 7.34407 8900 ft 285 kts 60°
2026-04-26 17:23 51.00871 7.37253 9753 ft 290 kts 61°
2026-04-26 17:23 51.01498 7.40338 10556 ft 299 kts 77°
2026-04-26 17:23 51.01623 7.43717 11039 ft 319 kts 92°
2026-04-26 17:24 51.01139 7.47296 11268 ft 345 kts 106°
2026-04-26 17:24 51.00388 7.51037 11563 ft 363 kts 106°
2026-04-26 17:24 50.99614 7.54901 12161 ft 370 kts 106°
2026-04-26 17:24 50.98836 7.58812 12835 ft 374 kts 106°
2026-04-26 17:25 50.98054 7.62762 13519 ft 377 kts 106°
2026-04-26 17:25 50.97266 7.66759 14187 ft 381 kts 106°
2026-04-26 17:25 50.96474 7.70784 14788 ft 384 kts 106°
2026-04-26 17:25 50.95674 7.74854 15389 ft 387 kts 107°
2026-04-26 17:26 50.94864 7.78948 15981 ft 391 kts 107°
2026-04-26 17:26 50.93793 7.82933 16564 ft 395 kts 118°
2026-04-26 17:26 50.92327 7.86638 17164 ft 398 kts 124°
2026-04-26 17:26 50.90808 7.90260 17762 ft 402 kts 124°
2026-04-26 17:27 50.89235 7.94015 18377 ft 405 kts 124°
2026-04-26 17:27 50.87694 7.97696 18903 ft 409 kts 124°
2026-04-26 17:27 50.86092 8.01520 19422 ft 413 kts 123°
2026-04-26 17:27 50.84498 8.05321 19927 ft 417 kts 123°
2026-04-26 17:28 50.82913 8.09101 20440 ft 420 kts 123°
2026-04-26 17:28 50.81290 8.12964 20947 ft 424 kts 123°
2026-04-26 17:28 50.79648 8.16861 21455 ft 427 kts 123°
2026-04-26 17:28 50.78008 8.20794 21926 ft 430 kts 121°
2026-04-26 17:29 50.76804 8.25114 22374 ft 432 kts 105°
2026-04-26 17:29 50.76273 8.28148 22677 ft 433 kts 104°
2026-04-26 17:29 50.75223 8.34321 23291 ft 437 kts 103°
2026-04-26 17:29 50.74439 8.38973 23740 ft 440 kts 103°
2026-04-26 17:30 50.73647 8.43656 24110 ft 443 kts 103°
2026-04-26 17:30 50.72845 8.48373 24501 ft 446 kts 104°
2026-04-26 17:30 50.72036 8.53107 24863 ft 448 kts 104°
2026-04-26 17:30 50.71219 8.57861 25246 ft 451 kts 104°
2026-04-26 17:31 50.70393 8.62646 25613 ft 453 kts 104°
2026-04-26 17:31 50.69562 8.67451 25997 ft 455 kts 104°
2026-04-26 17:31 50.68723 8.72280 26371 ft 458 kts 104°
2026-04-26 17:31 50.67876 8.77138 26734 ft 460 kts 104°
2026-04-26 17:32 50.67027 8.82000 27087 ft 462 kts 104°
2026-04-26 17:32 50.66173 8.86897 27448 ft 464 kts 104°
2026-04-26 17:32 50.65310 8.91819 27800 ft 467 kts 104°
2026-04-26 17:32 50.64442 8.96755 28141 ft 469 kts 104°
2026-04-26 17:33 50.63568 9.01712 28468 ft 471 kts 104°
2026-04-26 17:33 50.62689 9.06690 28799 ft 473 kts 104°
2026-04-26 17:33 50.61801 9.11700 29116 ft 475 kts 104°
2026-04-26 17:34 50.60020 9.21697 29738 ft 480 kts 104°
2026-04-26 17:34 50.59113 9.26759 30048 ft 482 kts 104°
2026-04-26 17:34 50.58200 9.31844 30408 ft 482 kts 104°
2026-04-26 17:34 50.57291 9.36908 30821 ft 480 kts 104°
2026-04-26 17:35 50.56382 9.41964 31212 ft 479 kts 104°
2026-04-26 17:35 50.55472 9.46997 31588 ft 479 kts 104°
2026-04-26 17:35 50.54557 9.52031 31963 ft 478 kts 104°
2026-04-26 17:35 50.53644 9.57051 32331 ft 478 kts 104°
2026-04-26 17:36 50.52730 9.62073 32708 ft 477 kts 104°
2026-04-26 17:36 50.51817 9.67080 33072 ft 477 kts 105°
2026-04-26 17:36 50.50902 9.72073 33458 ft 476 kts 105°
2026-04-26 17:36 50.49983 9.77074 33832 ft 476 kts 105°
2026-04-26 17:37 50.49066 9.82057 34245 ft 475 kts 105°
2026-04-26 17:37 50.48147 9.87030 34590 ft 474 kts 105°
2026-04-26 17:37 50.47225 9.92005 34914 ft 474 kts 105°
2026-04-26 17:38 50.45379 10.01934 35257 ft 473 kts 105°
2026-04-26 17:38 50.44453 10.06879 35268 ft 472 kts 105°
2026-04-26 17:38 50.42598 10.16750 35264 ft 471 kts 105°
2026-04-26 17:39 50.40746 10.26581 35267 ft 470 kts 105°
2026-04-26 17:39 50.38890 10.36415 35267 ft 470 kts 105°
2026-04-26 17:40 50.37338 10.44580 35267 ft 470 kts 105°
2026-04-26 17:40 50.35151 10.55979 35260 ft 470 kts 105°
2026-04-26 17:41 50.33255 10.65780 35270 ft 470 kts 106°
2026-04-26 17:41 50.31357 10.75562 35277 ft 470 kts 106°
2026-04-26 17:42 50.29454 10.85340 35280 ft 470 kts 106°
2026-04-26 17:42 50.27550 10.95108 35281 ft 469 kts 106°
2026-04-26 17:43 50.25643 11.04853 35275 ft 469 kts 106°
2026-04-26 17:43 50.23724 11.14585 35280 ft 468 kts 106°
2026-04-26 17:44 50.21796 11.24297 35270 ft 468 kts 106°
2026-04-26 17:44 50.19861 11.34006 35269 ft 468 kts 107°
2026-04-26 17:45 50.17914 11.43700 35266 ft 468 kts 107°
2026-04-26 17:45 50.15962 11.53387 35269 ft 468 kts 107°
2026-04-26 17:46 50.14002 11.63086 35265 ft 469 kts 107°
2026-04-26 17:46 50.12033 11.72776 35263 ft 469 kts 107°
2026-04-26 17:47 50.10392 11.80840 35265 ft 470 kts 107°
2026-04-26 17:47 50.08062 11.92157 35266 ft 470 kts 107°
2026-04-26 17:48 50.06070 12.01778 35261 ft 470 kts 108°
2026-04-26 17:48 50.04047 12.11527 35257 ft 471 kts 108°
2026-04-26 17:49 50.02043 12.21149 35256 ft 471 kts 108°
2026-04-26 17:49 50.00017 12.30851 35252 ft 472 kts 108°
2026-04-26 17:50 49.97976 12.40546 35246 ft 472 kts 108°
2026-04-26 17:50 49.95922 12.50258 35239 ft 474 kts 108°
2026-04-26 17:51 49.93853 12.59982 35240 ft 475 kts 109°
2026-04-26 17:51 49.91775 12.69728 35244 ft 475 kts 109°
2026-04-26 17:52 49.89687 12.79468 35248 ft 476 kts 109°
2026-04-26 17:52 49.87585 12.89201 35251 ft 476 kts 109°
2026-04-26 17:53 49.85469 12.98937 35252 ft 477 kts 109°
2026-04-26 17:54 49.82314 13.13474 35244 ft 477 kts 109°
2026-04-26 17:54 49.80187 13.23185 35240 ft 477 kts 109°
2026-04-26 17:55 49.78046 13.32902 35239 ft 477 kts 109°
2026-04-26 17:55 49.75898 13.42608 35245 ft 477 kts 109°
2026-04-26 17:56 49.73740 13.52309 35253 ft 477 kts 109°
2026-04-26 17:57 49.69403 13.71694 35263 ft 482 kts 110°
2026-04-26 17:57 49.67184 13.81568 35264 ft 489 kts 110°
2026-04-26 17:58 49.62682 14.01406 35265 ft 490 kts 110°
2026-04-26 17:59 49.59276 14.16224 35264 ft 492 kts 110°
2026-04-26 17:59 49.56996 14.26160 35259 ft 492 kts 110°
2026-04-26 18:00 49.54704 14.36088 35260 ft 492 kts 110°
2026-04-26 18:00 49.52401 14.46005 35260 ft 492 kts 110°
2026-04-26 18:01 49.50091 14.55924 35262 ft 493 kts 110°
2026-04-26 18:01 49.47767 14.65839 35246 ft 493 kts 110°
2026-04-26 18:02 49.46205 14.72467 35254 ft 493 kts 110°
2026-04-26 18:02 49.43081 14.85646 35260 ft 493 kts 110°
2026-04-26 18:03 49.40730 14.95541 35257 ft 493 kts 110°
2026-04-26 18:03 49.38369 15.05433 35253 ft 494 kts 110°
2026-04-26 18:04 49.36387 15.13720 35256 ft 494 kts 110°
2026-04-26 18:05 49.32828 15.28479 35257 ft 494 kts 111°
2026-04-26 18:05 49.30431 15.38363 35254 ft 495 kts 111°
2026-04-26 18:06 49.28029 15.48252 35256 ft 496 kts 111°
2026-04-26 18:06 49.25610 15.58134 35256 ft 496 kts 111°
2026-04-26 18:07 49.23184 15.68015 35252 ft 496 kts 111°
2026-04-26 18:07 49.20749 15.77896 35251 ft 497 kts 111°
2026-04-26 18:08 49.18298 15.87768 35254 ft 497 kts 111°
2026-04-26 18:08 49.15833 15.97643 35235 ft 497 kts 111°
2026-04-26 18:09 49.13362 16.07519 35240 ft 498 kts 111°
2026-04-26 18:09 49.10887 16.17388 35242 ft 497 kts 111°
2026-04-26 18:10 49.08402 16.27239 35240 ft 498 kts 111°
2026-04-26 18:10 49.05911 16.37087 35242 ft 498 kts 111°
2026-04-26 18:11 49.03413 16.46933 35238 ft 498 kts 112°
2026-04-26 18:11 49.00904 16.56756 35235 ft 498 kts 112°
2026-04-26 18:12 48.98381 16.66577 35236 ft 498 kts 112°
2026-04-26 18:12 48.95853 16.76394 35227 ft 498 kts 112°
2026-04-26 18:13 48.93314 16.86204 35239 ft 498 kts 112°
2026-04-26 18:13 48.90761 16.96006 35248 ft 498 kts 112°
2026-04-26 18:14 48.88219 17.05715 35243 ft 498 kts 112°
2026-04-26 18:14 48.85401 17.15312 35237 ft 496 kts 122°
2026-04-26 18:15 48.81127 17.23446 35236 ft 492 kts 136°
2026-04-26 18:15 48.76389 17.30944 35237 ft 493 kts 136°
2026-04-26 18:16 48.64134 17.50250 35230 ft 490 kts 142°
2026-04-26 18:17 48.61342 17.53132 35208 ft 482 kts 158°
2026-04-26 18:17 48.58235 17.54872 35212 ft 473 kts 172°
2026-04-26 18:17 48.55012 17.55446 35215 ft 463 kts 186°
2026-04-26 18:17 48.51854 17.54885 35225 ft 452 kts 200°
2026-04-26 18:18 48.46060 17.51511 35225 ft 446 kts 208°
2026-04-26 18:18 48.40327 17.47887 35193 ft 448 kts 208°
2026-04-26 18:19 48.34561 17.44298 35211 ft 450 kts 205°
2026-04-26 18:19 48.31474 17.43288 35387 ft 460 kts 188°
2026-04-26 18:19 48.28320 17.43562 35876 ft 464 kts 173°
2026-04-26 18:20 48.25249 17.45121 36271 ft 471 kts 155°
2026-04-26 18:20 48.22565 17.47978 36598 ft 477 kts 139°
2026-04-26 18:20 48.20201 17.51489 36821 ft 480 kts 137°
2026-04-26 18:20 48.19404 17.52687 36865 ft 481 kts 137°
2026-04-26 18:21 48.15468 17.58623 37109 ft 485 kts 137°
2026-04-26 18:21 48.13084 17.62208 37220 ft 486 kts 137°
2026-04-26 18:21 48.08298 17.69353 37239 ft 485 kts 138°
2026-04-26 18:22 48.03492 17.76469 37239 ft 487 kts 138°
2026-04-26 18:22 47.98663 17.83589 37231 ft 488 kts 138°
2026-04-26 18:23 47.93830 17.90702 37234 ft 488 kts 138°
2026-04-26 18:23 47.88997 17.97795 37235 ft 488 kts 138°
2026-04-26 18:24 47.84156 18.04893 37229 ft 488 kts 137°
2026-04-26 18:24 47.79310 18.11977 37229 ft 489 kts 137°
2026-04-26 18:25 47.74479 18.19008 37236 ft 489 kts 138°
2026-04-26 18:25 47.69618 18.26062 37238 ft 489 kts 138°
2026-04-26 18:26 47.64756 18.33115 37235 ft 489 kts 138°
2026-04-26 18:26 47.59896 18.40152 37236 ft 488 kts 138°
2026-04-26 18:27 47.55031 18.47176 37233 ft 487 kts 138°
2026-04-26 18:27 47.50170 18.54159 37239 ft 486 kts 138°
2026-04-26 18:28 47.45310 18.61112 37244 ft 486 kts 138°
2026-04-26 18:28 47.41273 18.66887 37239 ft 486 kts 139°
2026-04-26 18:29 47.36414 18.73817 37240 ft 485 kts 139°
2026-04-26 18:29 47.30765 18.81841 37233 ft 485 kts 139°
2026-04-26 18:30 47.25910 18.88731 37228 ft 484 kts 139°
2026-04-26 18:30 47.21847 18.94491 37225 ft 484 kts 139°
2026-04-26 18:31 47.16983 19.01347 37223 ft 484 kts 139°
2026-04-26 18:31 47.12116 19.08185 37218 ft 484 kts 139°
2026-04-26 18:32 47.07283 19.14980 37217 ft 484 kts 139°
2026-04-26 18:32 47.02413 19.21803 37205 ft 484 kts 139°
2026-04-26 18:33 46.97539 19.28593 37190 ft 483 kts 139°
2026-04-26 18:33 46.92672 19.35378 37190 ft 483 kts 139°
2026-04-26 18:34 46.87801 19.42150 37193 ft 483 kts 139°
2026-04-26 18:34 46.82919 19.48904 37193 ft 483 kts 139°
2026-04-26 18:35 46.78031 19.55643 37197 ft 483 kts 139°
2026-04-26 18:35 46.73142 19.62373 37194 ft 483 kts 139°
2026-04-26 18:36 46.68253 19.69091 37196 ft 483 kts 139°
2026-04-26 18:36 46.63370 19.75798 37197 ft 482 kts 139°
2026-04-26 18:37 46.58485 19.82472 37197 ft 482 kts 139°
2026-04-26 18:37 46.53593 19.89143 37190 ft 482 kts 139°
2026-04-26 18:38 46.48702 19.95806 37185 ft 482 kts 139°
2026-04-26 18:38 46.43832 20.02406 37165 ft 482 kts 139°
2026-04-26 18:39 46.38931 20.09024 37176 ft 482 kts 139°
2026-04-26 18:39 46.34024 20.15637 37182 ft 482 kts 139°
2026-04-26 18:40 46.29126 20.22237 37184 ft 481 kts 139°
2026-04-26 18:40 46.24225 20.28828 37183 ft 481 kts 140°
2026-04-26 18:41 46.19322 20.35395 37186 ft 481 kts 140°
2026-04-26 18:41 46.14544 20.42164 37164 ft 483 kts 133°
2026-04-26 18:42 46.10157 20.49496 37174 ft 483 kts 133°
2026-04-26 18:42 46.05759 20.56793 37177 ft 482 kts 133°
2026-04-26 18:43 46.01358 20.64073 37183 ft 482 kts 133°
2026-04-26 18:43 45.96947 20.71363 37169 ft 483 kts 133°
2026-04-26 18:44 45.92521 20.78650 37168 ft 484 kts 133°
2026-04-26 18:44 45.88118 20.85873 37168 ft 484 kts 133°
2026-04-26 18:45 45.83681 20.93134 37159 ft 484 kts 133°
2026-04-26 18:45 45.79208 21.00432 37157 ft 484 kts 133°
2026-04-26 18:46 45.74792 21.07623 37154 ft 484 kts 133°
2026-04-26 18:46 45.70343 21.14857 37156 ft 484 kts 133°
2026-04-26 18:47 45.65880 21.22080 37164 ft 484 kts 133°
2026-04-26 18:47 45.61422 21.29295 37165 ft 484 kts 133°
2026-04-26 18:48 45.56966 21.36489 37166 ft 484 kts 133°
2026-04-26 18:48 45.52495 21.43680 37153 ft 484 kts 133°
2026-04-26 18:49 45.48030 21.50841 37169 ft 483 kts 133°
2026-04-26 18:49 45.43568 21.57972 37178 ft 482 kts 133°
2026-04-26 18:50 45.39112 21.65085 37173 ft 481 kts 133°
2026-04-26 18:50 45.34652 21.72180 37169 ft 481 kts 133°
2026-04-26 18:51 45.30195 21.79259 37162 ft 481 kts 133°
2026-04-26 18:51 45.25729 21.86316 37161 ft 481 kts 134°
2026-04-26 18:52 45.22017 21.92186 37155 ft 480 kts 133°
2026-04-26 18:52 45.16782 22.00441 37149 ft 480 kts 134°
2026-04-26 18:53 45.12315 22.07454 37154 ft 480 kts 134°
2026-04-26 18:53 45.07841 22.14470 37157 ft 480 kts 134°
2026-04-26 18:54 45.03361 22.21469 37143 ft 480 kts 134°
2026-04-26 18:54 44.98881 22.28462 37132 ft 480 kts 134°
2026-04-26 18:55 44.94401 22.35445 37147 ft 479 kts 134°
2026-04-26 18:55 44.89949 22.42347 37121 ft 478 kts 134°
2026-04-26 18:56 44.85474 22.49277 37110 ft 477 kts 134°
2026-04-26 18:56 44.80995 22.56178 37113 ft 477 kts 134°
2026-04-26 18:57 44.77247 22.61950 37118 ft 477 kts 134°
2026-04-26 18:57 44.72043 22.69948 37107 ft 476 kts 134°
2026-04-26 18:58 44.67571 22.76798 37105 ft 476 kts 134°
2026-04-26 18:58 44.63095 22.83640 37087 ft 475 kts 134°
2026-04-26 18:59 44.58621 22.90471 37080 ft 475 kts 134°
2026-04-26 18:59 44.54146 22.97279 37082 ft 475 kts 134°
2026-04-26 19:00 44.49662 23.04077 37083 ft 475 kts 134°
2026-04-26 19:00 44.45168 23.10866 37092 ft 475 kts 134°
2026-04-26 19:01 44.40678 23.17660 37086 ft 476 kts 134°
2026-04-26 19:01 44.36171 23.24457 37077 ft 477 kts 135°
2026-04-26 19:02 44.31655 23.31236 37079 ft 477 kts 135°
2026-04-26 19:02 44.27892 23.36876 37080 ft 477 kts 135°
2026-04-26 19:03 44.22600 23.44800 37078 ft 477 kts 135°
2026-04-26 19:03 44.18070 23.51563 37072 ft 477 kts 135°
2026-04-26 19:04 44.13528 23.58315 37075 ft 477 kts 135°
2026-04-26 19:04 44.08990 23.65057 37078 ft 478 kts 135°
2026-04-26 19:05 44.04437 23.71803 36349 ft 478 kts 135°
2026-04-26 19:05 44.02166 23.75160 35872 ft 475 kts 134°
2026-04-26 19:05 43.99908 23.78498 35416 ft 472 kts 134°
2026-04-26 19:06 43.97693 23.81770 34977 ft 471 kts 134°
2026-04-26 19:06 43.95444 23.85087 34533 ft 471 kts 134°
2026-04-26 19:06 43.93199 23.88393 34102 ft 472 kts 135°
2026-04-26 19:06 43.90936 23.91719 33623 ft 475 kts 134°
2026-04-26 19:07 43.88665 23.95050 33138 ft 476 kts 134°
2026-04-26 19:07 43.86454 23.98285 32668 ft 478 kts 134°
2026-04-26 19:07 43.84162 24.01632 32196 ft 479 kts 134°
2026-04-26 19:07 43.81868 24.04981 31728 ft 480 kts 134°
2026-04-26 19:08 43.79570 24.08337 31369 ft 481 kts 134°
2026-04-26 19:08 43.77267 24.11699 31066 ft 482 kts 134°
2026-04-26 19:08 43.74953 24.15072 30768 ft 483 kts 134°
2026-04-26 19:08 43.72453 24.18153 30458 ft 482 kts 144°
2026-04-26 19:09 43.69625 24.20610 30171 ft 480 kts 154°
2026-04-26 19:09 43.66558 24.22417 29105 ft 482 kts 163°
2026-04-26 19:09 43.63267 24.23429 27808 ft 487 kts 176°
2026-04-26 19:09 43.59918 24.23587 27302 ft 475 kts 184°
2026-04-26 19:10 43.56637 24.23442 26814 ft 470 kts 184°
2026-04-26 19:10 43.53386 24.23343 26260 ft 466 kts 183°
2026-04-26 19:10 43.50157 24.23268 25788 ft 462 kts 182°
2026-04-26 19:10 43.46960 24.23200 25213 ft 458 kts 182°
2026-04-26 19:11 43.43789 24.23126 24660 ft 454 kts 182°
2026-04-26 19:11 43.40640 24.23039 24096 ft 451 kts 183°
2026-04-26 19:11 43.37507 24.22939 23519 ft 449 kts 183°
2026-04-26 19:11 43.34395 24.22833 22924 ft 445 kts 183°
2026-04-26 19:12 43.31310 24.22727 22374 ft 441 kts 183°
2026-04-26 19:12 43.28255 24.22625 21842 ft 437 kts 183°
2026-04-26 19:12 43.25219 24.22530 21303 ft 434 kts 183°
2026-04-26 19:12 43.22211 24.22439 20767 ft 432 kts 183°
2026-04-26 19:13 43.19214 24.22350 20272 ft 429 kts 183°
2026-04-26 19:13 43.16240 24.22259 20054 ft 427 kts 184°
2026-04-26 19:13 43.13299 24.21769 20063 ft 425 kts 195°
2026-04-26 19:13 43.10517 24.20487 20077 ft 421 kts 207°
2026-04-26 19:14 43.07987 24.18509 19797 ft 417 kts 216°
2026-04-26 19:14 43.05495 24.16441 18728 ft 422 kts 211°
2026-04-26 19:14 43.02843 24.14672 17404 ft 425 kts 206°
2026-04-26 19:14 43.01962 24.14152 17018 ft 424 kts 205°
2026-04-26 19:15 42.97435 24.11702 15499 ft 416 kts 204°
2026-04-26 19:15 42.94775 24.10226 14645 ft 410 kts 205°
2026-04-26 19:15 42.92168 24.08715 13786 ft 404 kts 206°
2026-04-26 19:15 42.89618 24.07200 12718 ft 396 kts 207°
2026-04-26 19:16 42.87149 24.05726 12077 ft 377 kts 206°
2026-04-26 19:16 42.84796 24.04333 11384 ft 362 kts 206°
2026-04-26 19:16 42.82524 24.02998 10818 ft 351 kts 206°
2026-04-26 19:16 42.81034 24.02128 10700 ft 338 kts 206°
2026-04-26 19:17 42.78913 24.00893 10583 ft 324 kts 206°
2026-04-26 19:17 42.76878 23.99712 10459 ft 312 kts 206°
2026-04-26 19:17 42.74881 23.98647 10246 ft 307 kts 199°
2026-04-26 19:17 42.72794 23.98090 10013 ft 306 kts 188°
2026-04-26 19:18 42.70695 23.97841 9830 ft 298 kts 189°
2026-04-26 19:18 42.68775 23.97059 9689 ft 281 kts 216°
2026-04-26 19:18 42.67358 23.95360 9375 ft 268 kts 240°
2026-04-26 19:18 42.66632 23.93148 8973 ft 256 kts 263°
2026-04-26 19:19 42.66544 23.90774 8568 ft 249 kts 277°
2026-04-26 19:19 42.66706 23.88445 8203 ft 246 kts 279°
2026-04-26 19:19 42.66875 23.86119 7743 ft 248 kts 278°
2026-04-26 19:19 42.67028 23.83786 7397 ft 247 kts 278°
2026-04-26 19:20 42.67174 23.81484 7079 ft 243 kts 278°
2026-04-26 19:20 42.67271 23.79950 6869 ft 240 kts 278°
2026-04-26 19:20 42.67459 23.76993 6475 ft 234 kts 278°
2026-04-26 19:20 42.67598 23.74802 6158 ft 230 kts 278°
2026-04-26 19:21 42.67733 23.72662 5850 ft 225 kts 278°
2026-04-26 19:21 42.67866 23.70561 5554 ft 221 kts 278°
2026-04-26 19:21 42.67995 23.68504 5262 ft 216 kts 279°
2026-04-26 19:21 42.68122 23.66484 4981 ft 212 kts 279°
2026-04-26 19:22 42.68245 23.64510 4694 ft 207 kts 279°
2026-04-26 19:22 42.68364 23.62594 4434 ft 199 kts 278°
2026-04-26 19:22 42.68479 23.60747 4177 ft 193 kts 278°
2026-04-26 19:22 42.68589 23.58968 3937 ft 186 kts 278°
2026-04-26 19:23 42.68696 23.57249 3680 ft 179 kts 277°
2026-04-26 19:23 42.68797 23.55612 3445 ft 167 kts 277°
2026-04-26 19:23 42.68888 23.54128 3217 ft 147 kts 277°
2026-04-26 19:23 42.68968 23.52817 3043 ft 134 kts 275°
2026-04-26 19:24 42.69043 23.51615 2882 ft 125 kts 275°
2026-04-26 19:24 42.69118 23.50388 2713 ft 136 kts 279°
2026-04-26 19:24 42.69285 23.47781 2306 ft 135 kts 278°
2026-04-26 19:25 42.69363 23.46551 2118 ft 128 kts 276°
2026-04-26 19:25 42.69408 23.45755 2041 ft 127 kts 275°
2026-04-26 19:25 42.69506 23.44147 1823 ft 127 kts 276°
2026-04-26 19:25 42.69574 23.43018 1755 ft 106 kts 274°
2026-04-26 19:26 42.69620 23.42241 1753 ft 58 kts 274°
2026-04-26 19:26 42.69639 23.41876 1754 ft 32 kts 272°
2026-04-26 19:26 42.69598 23.41606 1751 ft 21 kts 244°
2026-04-26 19:26 42.69554 23.41475 1750 ft 10 kts 246°
2026-04-26 19:27 42.69520 23.41375 1750 ft 14 kts 246°
2026-04-26 19:27 42.69481 23.41252 1745 ft 15 kts 245°
2026-04-26 19:27 42.69406 23.41205 1748 ft 11 kts 192°
2026-04-26 19:27 42.69314 23.41177 1750 ft 16 kts 193°
2026-04-26 19:28 42.69200 23.41142 1753 ft 9 kts 192°
2026-04-26 19:28 42.69136 23.41174 1753 ft 12 kts 138°
2026-04-26 19:28 42.69077 23.41218 1747 ft 10 kts 160°
2026-04-26 19:28 42.69061 23.41267 1753 ft 7 kts 75°
2026-04-26 19:29 42.69070 23.41307 1751 ft 0 kts 72°